This demonstration page uses our WeatherBlox Daily Observations layout. Learn more.

Left ArrowRight Arrow

41.86663, -103.66717

Hourly Observations for September 10, 2021

Temp ( °F °C ) Dew Point ( °F °C ) Humidity (%) Winds ( mph kmh ) Pressure ( in mb ) Visibility ( mi km ) Precip ( " mm )
12:53 am 00:53 Clear 57 13.9 48 8.9 72 72 N 3 6 29.93 1014 9 14 0.00 0.00
1:53 am 01:53 Clear 56 13.3 48 8.9 75 75 NNE 5 7 29.91 1013 10 16 0.00 0.00
2:53 am 02:53 Clear 54 12.2 47 8.3 77 77 N 3 6 29.91 1013 10 16 0.00 0.00
3:53 am 03:53 Clear 52 11.1 47 8.3 83 83 NW 5 7 29.91 1013 9 14 0.00 0.00
4:53 am 04:53 Clear 53 11.7 45 7.2 74 74 NW 8 13 29.91 1013 9 14 0.00 0.00
5:53 am 05:53 Clear 51 10.6 44 6.7 77 77 NNW 8 13 29.92 1013 9 14 0.00 0.00
6:53 am 06:53 Sunny 50 10 43 6.1 77 77 WNW 5 7 29.96 1014 7 11 0.00 0.00
7:53 am 07:53 Sunny 55 12.8 44 6.7 67 67 NW 6 9 29.97 1015 7 11 0.00 0.00
8:53 am 08:53 Sunny 63 17.2 45 7.2 52 52 WNW 7 11 29.96 1014 8 13 0.00 0.00
9:53 am 09:53 Sunny 71 21.7 44 6.7 38 38 NW 5 7 29.95 1014 8 13 0.00 0.00
10:53 am 10:53 Sunny 80 26.7 44 6.7 28 28 VRB 3 6 29.93 1014 8 13 0.00 0.00
11:53 am 11:53 Sunny 86 30 43 6.1 22 22 Calm 29.90 1013 10 16 0.00 0.00
12:53 pm 12:53 Sunny 90 32.2 44 6.7 20 20 undefined N/A 29.88 1012 9 14 0.00 0.00
1:53 pm 13:53 Sunny 94 34.4 44 6.7 18 18 E 6 9 29.85 1011 9 14 0.00 0.00
2:53 pm 14:53 Sunny 96 35.6 43 6.1 16 16 E 6 9 29.84 1010 10 16 0.00 0.00
3:53 pm 15:53 Sunny 97 36.1 31 -0.6 10 10 ESE 3 6 29.82 1010 10 16 0.00 0.00
4:53 pm 16:53 Sunny 99 37.2 35 1.7 11 11 E 5 7 29.80 1009 10 16 0.00 0.00
5:53 pm 17:53 Sunny 97 36.1 32 0 10 10 SSE 7 11 29.80 1009 10 16 0.00 0.00
6:53 pm 18:53 Hazy 84 28.9 54 12.2 36 36 ESE 5 7 29.83 1010 6 10 0.00 0.00
7:53 pm 19:53 Clear 77 25 53 11.7 43 43 undefined N/A 29.84 1011 7 11 0.00 0.00
8:53 pm 20:53 Clear 70 21.1 53 11.7 55 55 undefined N/A 29.85 1011 10 16 0.00 0.00
9:53 pm 21:53 Clear 73 22.8 48 8.9 41 41 ENE 7 11 29.84 1011 10 16 0.00 0.00
10:53 pm 22:53 Clear 68 20 46 7.8 45 45 Calm 29.83 1010 10 16 0.00 0.00
11:53 pm 23:53 Clear 67 19.4 48 8.9 51 51 WNW 9 15 29.83 1010 10 16 0.00 0.00

Powered by AerisWeather